This is the latest recevied weather packets stored in our database for station/object WR9A-13. If no packets are shown the sender has not sent any weather packets the latest 10 day(s).
| Time | Temp. | Humidity | Pressure | Rain* | Wind** | Luminosity | Snow |
|---|---|---|---|---|---|---|---|
| 1787852723 | 26.67° C | 65% | 1016.9 hPa | 0 mm | - | - | - |
| 1787852420 | 26.11° C | 66% | 1017 hPa | 0 mm | - | - | - |
| 1787852129 | 26.11° C | 68% | 1017 hPa | 0 mm | - | - | - |
| 1787851826 | 26.67° C | 68% | 1017 hPa | 0 mm | - | - | - |
| 1787851515 | 26.67° C | 67% | 1017.1 hPa | 0 mm | - | - | - |
| 1787851232 | 26.67° C | 67% | 1017.2 hPa | 0 mm | - | - | - |
| 1787850920 | 27.22° C | 67% | 1017.1 hPa | 0 mm | - | - | - |
| 1787850616 | 27.22° C | 68% | 1017.2 hPa | 0 mm | - | - | - |
| 1787850325 | 27.22° C | 70% | 1017.1 hPa | 0 mm | - | - | - |
| 1787850014 | 26.11° C | 70% | 1017.2 hPa | 0 mm | - | - | - |
| 1787849731 | 26.11° C | 69% | 1017.2 hPa | 0 mm | - | - | - |
| 1787849418 | 25.56° C | 74% | 1017.3 hPa | 0 mm | - | - | - |
| 1787849130 | 25.56° C | 75% | 1017.3 hPa | 0 mm | - | - | - |
| 1787848817 | 25.56° C | 74% | 1017.3 hPa | 0 mm | - | - | - |
| 1787848534 | 25.56° C | 73% | 1017.3 hPa | 0 mm | - | - | - |
| 1787848223 | 26.11° C | 72% | 1017.3 hPa | 0 mm | - | - | - |
| 1787847921 | 26.11° C | 70% | 1017.4 hPa | 0 mm | - | - | - |
| 1787847630 | 26.11° C | 68% | 1017.3 hPa | 0 mm | - | - | - |
| 1787847327 | 26.67° C | 70% | 1017.4 hPa | 0 mm | - | - | - |
| 1787847015 | 26.67° C | 71% | 1017.4 hPa | 0 mm | - | - | - |
| 1787846731 | 26.11° C | 72% | 1017.4 hPa | 0 mm | - | - | - |
| 1787846442 | 26.11° C | 72% | 1017.4 hPa | 0 mm | - | - | - |
| 1787846130 | 25.56° C | 73% | 1017.4 hPa | 0 mm | - | - | - |
| 1787845828 | 25.56° C | 74% | 1017.4 hPa | 0 mm | - | - | - |
| 1787845515 | 25.56° C | 74% | 1017.3 hPa | 0 mm | - | - | - |
* Rain latest hour (hover to see other rain measurements)
** Current wind speed in m/s (hover to see current wind gust speed)